Location: Assche-ter-Heiden
(50.9174°N, 4.1574°E)
Time: 22:03:35
(UTC+00:00)

Cosmos 1656 - Pass Details

Date: 20 January 2020
Orbit: 798 x 850 km, 71.1° (Epoch: 16 February)

Event Time Altitude Azimuth Distance (km) Brightness Sun altitude
Exits shadow 04:17:32 62° 84° (E) 907 4.0 -30.7°
Drops below altitude 10° 04:22:27 10° 34° (NE) 2,405 6.5 -29.9°
Sets 04:24:55 0° 32° (NNE) 3,347 7.3 -29.5°
